Wind_Speed
78 77 86 78 80 81 79 74 72 73 69 71 68 58 52 43 47 43 50 36 38 41 37 37 26 19 15 14 18 21 23 21
85 84 83 84 80 81 82 78 74 74 71 69 75 68 62 50 50 47 54 45 48 47 46 45 35 30 24 19 19 23 23 20
92 90 90 86 84 84 83 80 78 76 72 69 70 74 72 63 54 53 57 58 54 54 48 41 33 34 31 27 25 26 23 21
98 97 96 93 89 85 85 82 82 80 75 71 70 72 75 73 63 57 57 57 54 53 47 43 38 37 34 31 28 29 24 22
102 103 102 100 95 92 87 85 84 82 79 75 72 67 67 69 63 58 65 57 51 48 44 40 38 35 32 33 30 30 25 24
100 106 107 105 104 99 94 87 85 84 82 79 73 68 66 62 62 59 66 62 55 50 49 41 37 34 35 32 29 32 26 27
96 101 109 109 109 107 102 95 89 87 84 81 77 73 70 63 62 66 64 67 61 57 51 47 40 38 34 33 30 30 29 28
90 96 103 111 112 112 110 104 97 90 88 84 81 77 73 69 67 67 60 67 62 59 53 48 41 35 31 29 31 27 30 26
80 89 95 107 112 115 114 111 105 98 90 86 83 80 78 72 72 68 66 63 63 60 54 53 40 37 32 32 34 31 31 30
76 77 88 100 107 115 116 115 114 105 98 89 85 83 82 78 79 75 66 63 65 62 60 60 52 43 36 32 30 34 35 33
67 72 76 93 99 110 115 116 117 112 105 96 88 87 84 81 85 79 68 64 65 69 62 61 52 46 41 33 32 33 34 36
57 66 72 83 93 105 110 117 118 117 111 103 95 92 89 86 87 85 74 69 73 70 68 62 54 45 41 37 38 35 28 33
45 56 63 74 89 100 110 113 119 119 116 110 103 97 95 88 91 89 80 75 79 74 72 67 54 52 49 39 37 44 36 32
36 46 59 64 76 96 107 114 119 122 121 117 109 102 101 94 91 90 83 81 85 74 74 75 66 58 58 46 41 45 48 38
25 34 45 59 65 89 103 114 117 125 124 123 116 108 104 102 93 90 88 86 90 77 76 72 74 68 61 55 47 47 51 44
24 26 34 48 60 80 99 110 117 122 129 127 123 115 109 104 102 96 87 92 93 85 82 78 78 70 67 60 56 49 54 54
25 21 27 39 56 72 89 105 114 118 129 130 128 121 115 107 106 101 96 90 93 93 87 83 78 72 71 61 50 47 56 56
25 20 20 30 47 64 80 101 108 115 126 131 131 122 118 113 110 106 101 93 96 93 87 85 82 74 70 67 60 54 52 49
27 18 15 20 36 54 72 92 103 114 120 130 132 127 123 120 113 109 102 98 96 95 91 87 81 76 73 69 63 59 60 56
35 23 14 13 24 43 64 85 104 108 114 128 131 131 125 122 116 112 106 103 100 95 91 88 86 82 78 74 67 64 62 64
Wind_Direction
241 238 237 234 234 233 232 234 235 232 233 232 224 220 221 217 211 223 223 213 219 218 224 230 234 228 249 253 245 231 231 233
240 238 236 236 234 235 234 234 235 234 230 231 228 226 224 220 212 222 222 203 215 217 224 230 237 243 251 246 241 235 229 229
238 237 237 235 234 234 234 234 233 234 230 231 230 227 226 231 221 222 220 220 214 226 230 237 245 244 248 253 243 234 229 233
241 238 235 235 234 232 232 232 232 231 229 229 229 229 227 230 228 223 227 222 221 223 229 239 242 242 240 242 231 228 230 227
242 238 237 234 231 232 229 229 230 230 229 226 226 225 223 226 225 221 221 221 220 226 229 237 242 232 230 230 226 221 232 227
242 240 236 233 231 228 229 227 227 226 227 227 225 223 222 223 224 223 219 222 224 225 229 234 224 228 231 227 222 221 226 213
244 238 236 233 230 227 225 225 225 224 224 225 224 222 219 220 223 216 223 224 227 227 233 231 227 227 222 219 220 218 221 220
244 239 233 232 230 226 224 222 222 222 222 222 224 222 218 218 222 220 219 220 225 225 228 224 225 203 208 215 214 213 216 218
248 239 235 229 228 226 223 221 219 218 219 219 220 220 217 215 219 221 219 218 219 219 222 223 213 203 206 214 214 214 218 225
254 241 234 230 226 225 222 219 218 216 216 215 217 219 216 213 213 219 218 214 217 218 219 219 217 213 211 211 214 220 217 217
255 244 237 228 226 221 221 217 217 215 214 213 212 215 215 210 211 217 216 214 215 214 211 209 208 210 212 214 215 224 223 221
256 245 239 223 223 222 218 217 213 213 212 210 210 212 215 210 212 214 214 212 210 210 210 207 206 208 211 211 215 216 222 233
257 249 234 232 226 220 217 215 212 211 209 209 208 209 213 212 209 212 211 211 212 211 206 208 213 216 214 220 216 220 219 228
265 245 240 227 221 217 216 212 212 208 208 208 207 205 208 214 211 211 209 210 211 212 212 215 218 217 215 223 221 222 224 228
278 255 237 234 221 216 215 212 209 208 206 207 205 205 204 211 211 210 206 206 209 207 214 219 219 218 225 226 229 221 228 226
303 263 241 227 221 215 214 212 208 206 204 204 205 205 202 209 210 211 209 206 209 212 213 215 221 226 231 228 226 223 221 229
320 285 247 229 217 213 213 211 209 205 204 203 204 205 202 205 209 210 209 208 210 214 217 221 225 229 234 231 233 227 224 231
332 306 265 233 220 214 212 209 209 206 203 203 202 204 204 202 208 210 210 211 211 216 217 221 224 228 233 231 229 228 226 230
351 328 290 243 225 214 210 208 208 206 204 203 202 202 205 203 207 210 209 209 211 215 218 221 224 226 230 233 232 231 225 228
7 353 323 261 226 216 210 209 206 207 205 203 201 202 204 204 204 210 208 209 212 215 219 221 223 226 229 231 233 234 229 234
Height
10718 10725 10726 10733 10739 10745 10751 10757 10763 10769 10778 10784 10794 10800 10805 10811 10818 10822 10823 10827 10830 10831 10831 10832 10837 10840 10841 10844 10847 10849 10849 10851
10697 10704 10708 10714 10725 10730 10737 10744 10749 10756 10764 10771 10780 10788 10794 10801 10807 10813 10816 10820 10823 10820 10825 10827 10833 10836 10839 10842 10844 10846 10847 10849
10674 10680 10686 10693 10702 10711 10719 10728 10735 10741 10751 10758 10766 10774 10782 10789 10797 10802 10806 10810 10817 10816 10822 10825 10829 10832 10835 10838 10841 10843 10845 10847
10647 10655 10661 10670 10680 10689 10698 10709 10718 10727 10736 10745 10752 10761 10770 10778 10786 10793 10798 10804 10807 10812 10818 10821 10824 10828 10830 10833 10836 10840 10842 10845
10614 10626 10634 10644 10655 10667 10677 10688 10699 10711 10721 10730 10738 10746 10755 10765 10775 10784 10788 10795 10801 10807 10812 10816 10819 10822 10824 10827 10830 10836 10838 10841
10578 10591 10601 10615 10627 10640 10655 10668 10679 10690 10703 10715 10725 10734 10743 10753 10763 10770 10778 10786 10793 10799 10806 10811 10813 10816 10818 10822 10826 10831 10834 10838
10543 10552 10569 10580 10596 10612 10628 10644 10658 10670 10684 10697 10710 10719 10730 10740 10750 10759 10768 10777 10786 10791 10799 10804 10807 10810 10813 10816 10822 10826 10829 10834
10507 10514 10531 10544 10560 10580 10597 10616 10633 10651 10665 10679 10693 10705 10717 10728 10737 10747 10757 10768 10777 10783 10791 10797 10801 10803 10807 10811 10816 10821 10825 10830
10472 10481 10494 10505 10523 10542 10565 10588 10606 10627 10644 10662 10676 10689 10702 10713 10724 10734 10747 10757 10766 10774 10782 10788 10793 10797 10800 10806 10810 10816 10820 10824
10438 10448 10459 10472 10490 10508 10533 10560 10579 10602 10622 10640 10658 10671 10685 10700 10712 10722 10734 10746 10757 10764 10772 10779 10786 10790 10794 10799 10804 10808 10813 10819
10409 10418 10428 10441 10459 10476 10500 10528 10553 10578 10598 10619 10636 10653 10669 10684 10697 10708 10723 10735 10746 10753 10762 10769 10776 10781 10787 10792 10797 10803 10809 10813
10384 10391 10399 10412 10430 10449 10470 10498 10524 10551 10575 10597 10616 10635 10650 10667 10682 10695 10710 10724 10735 10742 10751 10760 10765 10773 10779 10785 10791 10797 10803 10806
10364 10366 10374 10387 10401 10422 10444 10467 10498 10524 10551 10574 10595 10616 10634 10650 10666 10680 10696 10710 10723 10730 10741 10748 10756 10763 10772 10777 10782 10790 10797 10802
10345 10348 10353 10363 10379 10397 10415 10439 10468 10496 10526 10550 10574 10595 10615 10632 10650 10666 10681 10697 10710 10718 10730 10736 10743 10754 10759 10767 10775 10782 10789 10795
10334 10332 10336 10345 10357 10373 10392 10413 10438 10468 10501 10527 10553 10574 10595 10615 10633 10649 10664 10682 10695 10705 10717 10723 10732 10741 10749 10758 10767 10774 10779 10786
10324 10322 10322 10328 10339 10352 10368 10389 10414 10447 10470 10504 10528 10553 10576 10596 10616 10632 10650 10666 10680 10693 10702 10710 10723 10731 10736 10747 10757 10765 10772 10777
10317 10314 10314 10317 10325 10337 10352 10374 10398 10421 10452 10480 10507 10532 10559 10578 10599 10617 10635 10653 10667 10678 10690 10701 10711 10721 10728 10739 10747 10755 10763 10769
10313 10309 10308 10309 10315 10326 10340 10360 10382 10406 10434 10459 10491 10523 10545 10563 10583 10600 10620 10638 10653 10664 10678 10689 10698 10710 10718 10730 10737 10744 10753 10759
10313 10307 10305 10306 10310 10317 10331 10349 10370 10393 10416 10444 10472 10502 10520 10550 10566 10585 10608 10625 10639 10652 10664 10677 10689 10699 10707 10716 10725 10735 10743 10750
10315 10308 10304 10303 10306 10313 10325 10341 10361 10382 10405 10434 10460 10486 10510 10535 10551 10570 10591 10609 10626 10640 10653 10665 10676 10687 10696 10703 10715 10723 10732 10738